Change the Weather History Date:

Sunday, April 14, 2013

  Actual Average Record
Temperature  
Mean Temperature 64 °F -  
Max Temperature 73 °F 66 °F 93 °F (2002)
Min Temperature 53 °F 40 °F 24 °F (2008)
Degree Days  
Heating Degree Days 1    
Growing Degree Days 14 (Base 50)    
Moisture  
Dew Point 38 °F    
Average Humidity 44    
Maximum Humidity 65    
Minimum Humidity 14    
Precipitation  
Precipitation 0.00 in - - ()
Sea Level Pressure  
Sea Level Pressure 29.51 in    
Wind  
Wind Speed 20 mph (WSW)    
Max Wind Speed 26 mph    
Max Gust Speed 37 mph    
Visibility 10 miles    
Events      
Averages and records for this station are not official NWS values.
T = Trace of Precipitation, MM = Missing Value Source: NWS Daily Summary

Daily Weather History Graph

Daily Weather History Graph

Search for Another Location

Airport or City:

Trip Planner

Search our weather history database for the weather conditions in past years. The results will help you decide how hot, cold, wet, or windy it might be!

Date:

Astronomy

Apr. 14, 2013 Rise Set
Actual Time 6:56 AM CDT 8:06 PM CDT
Civil Twilight 6:29 AM CDT 8:34 PM CDT
Nautical Twilight 5:57 AM CDT 9:06 PM CDT
Astronomical Twilight 5:23 AM CDT 9:40 PM CDT
Moon 9:37 AM CDT (4/14) No Moon Set
Length of Visible Light 14h 04m
Length of Day
13h 09m
Waxing Crescent, 17% of the Moon is Illuminated
Apr 14
Waxing Crescent
Apr 18
First Quarter
Apr 25
Full
May 2
Last Quarter
May 9
New

Hourly Weather History & Observations

Time (CDT) Temp. Dew Point Humidity Pressure Visibility Wind Dir Wind Speed Gust Speed Precip Events Conditions
12:52 AM 60.1 °F 44.1 °F 55% 29.51 in 10.0 mi South 24.2 mph 31.1 mph N/A   Clear
1:52 AM 60.1 °F 45.0 °F 57% 29.49 in 10.0 mi South 21.9 mph 29.9 mph N/A   Clear
2:52 AM 60.1 °F 45.0 °F 57% 29.46 in 10.0 mi South 25.3 mph 34.5 mph N/A   Clear
3:52 AM 60.1 °F 46.0 °F 60% 29.43 in 10.0 mi South 26.5 mph 36.8 mph N/A   Clear
4:52 AM 59.0 °F 46.0 °F 62% 29.41 in 10.0 mi South 24.2 mph 33.4 mph N/A   Clear
5:52 AM 57.9 °F 46.0 °F 65% 29.39 in 10.0 mi South 21.9 mph 33.4 mph N/A   Clear
6:52 AM 57.9 °F 46.0 °F 65% 29.40 in 10.0 mi South 25.3 mph 33.4 mph N/A   Partly Cloudy
7:52 AM 59.0 °F 46.9 °F 64% 29.39 in 10.0 mi South 20.7 mph 32.2 mph N/A   Clear
8:52 AM 60.1 °F 48.0 °F 64% 29.43 in 10.0 mi South 19.6 mph - N/A   Clear
9:52 AM 61.0 °F 48.9 °F 64% 29.44 in 10.0 mi South 18.4 mph 25.3 mph N/A   Overcast
10:52 AM 68.0 °F 51.1 °F 55% 29.44 in 10.0 mi SSW 18.4 mph 34.5 mph N/A   Clear
11:52 AM 68.0 °F 50.0 °F 52% 29.46 in 10.0 mi SW 19.6 mph 23.0 mph N/A   Scattered Clouds
12:52 PM 68.0 °F 46.9 °F 47% 29.46 in 10.0 mi NNW 10.4 mph 18.4 mph N/A   Overcast
1:52 PM 71.1 °F 42.1 °F 35% 29.46 in 10.0 mi NW 11.5 mph 20.7 mph N/A   Partly Cloudy
2:52 PM 73.9 °F 39.0 °F 28% 29.48 in 10.0 mi NW 12.7 mph 20.7 mph N/A   Clear
3:52 PM 73.0 °F 33.1 °F 23% 29.49 in 10.0 mi North 15.0 mph - N/A   Clear
4:52 PM 72.0 °F 27.0 °F 19% 29.51 in 10.0 mi NNW 15.0 mph 21.9 mph N/A   Partly Cloudy
5:52 PM 71.1 °F 19.9 °F 14% 29.55 in 10.0 mi NNW 16.1 mph - N/A   Clear
6:52 PM 68.0 °F 21.0 °F 17% 29.58 in 10.0 mi NNW 15.0 mph 21.9 mph N/A   Clear
7:52 PM 62.1 °F 24.1 °F 23% 29.62 in 10.0 mi NNW 15.0 mph 25.3 mph N/A   Clear
8:52 PM 59.0 °F 26.1 °F 28% 29.65 in 10.0 mi North 12.7 mph - N/A   Clear
9:52 PM 55.9 °F 25.0 °F 30% 29.67 in 10.0 mi North 16.1 mph 23.0 mph N/A   Clear
10:52 PM 55.0 °F 25.0 °F 31% 29.72 in 10.0 mi NNE 10.4 mph - N/A   Clear
11:52 PM 53.1 °F 27.0 °F 37% 29.72 in 10.0 mi NNE 10.4 mph - N/A   Scattered Clouds